Location: Waco, TX
(31.5480°N, 97.1670°W)
Time: 00:39:10
(UTC-06:00)

ISS - Pass Details

Date: 09 December 2017
Orbit: 403 x 407 km, 51.6° (Epoch: 12 December)

Event Time Altitude Azimuth Distance (km) Brightness Sun altitude
Rises 20:41:30 0° 323° (NW) 2,323 - -40.9°
Reaches altitude 10° 20:43:43 10° 334° (NNW) 1,460 - -41.3°
Maximum altitude 20:46:43 33° 40° (NE) 700 - -42.0°
Drops below altitude 10° 20:49:43 10° 107° (ESE) 1,452 - -42.6°
Sets 20:51:54 0° 117° (ESE) 2,307 - -43.1°
